RH
85 67 27 10 9 8 8 7 7 9 17 26 33 38 34 31 33 28 25 24 23 21 19 16 14 15 15 17 19 22 27 26 23 23 18 13 12 18 28 26 20 14 11 10 11
57 48 32 9 10 8 8 8 8 12 23 30 38 39 37 32 32 30 30 28 26 23 20 19 16 14 14 15 14 14 12 11 13 14 13 12 12 14 14 12 11 14 15 14 13
52 17 12 9 10 10 9 9 9 15 30 34 39 39 40 32 32 34 33 33 33 29 26 24 17 15 15 13 13 12 11 13 14 19 18 13 10 9 9 10 18 15 15 17 16
56 15 11 10 10 9 9 9 11 15 33 43 40 39 43 34 31 33 33 35 37 36 30 25 20 16 15 15 14 12 12 12 9 10 10 9 8 14 15 19 15 14 13 14 14
19 15 11 10 10 10 10 10 11 16 31 49 48 45 44 38 34 40 37 40 39 36 32 28 24 20 15 14 14 12 11 11 9 10 14 20 20 18 17 16 17 15 14 14 14
12 12 11 11 11 12 12 11 12 16 29 48 51 50 47 42 40 39 40 40 40 36 34 29 23 19 14 13 12 12 11 10 9 21 23 21 18 11 16 16 15 16 15 14 13
12 12 12 12 14 14 13 12 14 20 27 42 52 51 51 44 43 42 40 39 38 37 33 26 19 18 13 13 13 13 11 12 18 23 24 21 11 12 14 16 15 16 15 13 13
13 12 12 14 15 14 12 12 15 24 28 40 50 50 50 47 46 42 41 40 38 35 29 24 16 15 15 14 14 13 14 19 24 20 17 12 7 16 19 17 17 18 14 14 14
12 13 14 16 17 15 12 12 16 28 34 41 43 44 43 42 42 44 42 41 37 31 28 21 16 16 16 15 15 19 22 21 16 16 15 16 14 17 17 18 20 17 17 17 17
15 13 14 16 17 14 13 14 20 32 40 43 42 44 36 36 35 37 37 36 33 28 18 17 18 15 15 16 18 23 22 21 18 19 18 19 16 15 15 17 20 18 19 19 18
21 13 15 18 20 15 14 19 29 32 37 39 40 39 35 34 33 31 27 26 21 19 19 19 18 15 19 20 19 22 25 22 21 20 20 17 17 18 19 19 20 20 20 20 20
23 15 15 20 24 19 19 26 32 34 37 36 38 36 34 36 34 28 26 24 19 20 20 19 16 16 17 19 22 24 23 22 21 23 21 17 22 24 20 21 20 21 21 21 24
24 17 16 19 27 26 24 32 38 39 37 25 28 27 31 38 29 29 26 24 23 23 21 22 21 18 21 22 22 21 24 24 23 22 18 19 24 26 25 23 22 25 24 25 26
26 20 16 16 24 27 31 30 35 35 26 18 16 18 19 26 27 22 25 26 28 24 22 19 18 18 19 19 20 23 25 24 24 23 22 21 26 26 27 26 24 27 27 27 27
26 22 17 17 19 21 24 26 27 25 31 18 20 22 20 23 25 23 22 25 25 25 24 20 25 25 25 23 25 26 26 24 23 23 27 28 30 24 27 28 27 28 29 28 29
26 24 20 18 20 23 23 23 26 28 32 21 26 25 24 24 26 23 22 26 27 26 22 20 24 24 23 25 27 27 25 23 23 31 39 33 32 23 23 25 28 29 30 30 32
26 26 24 21 22 26 28 30 32 30 18 24 29 29 27 26 25 28 25 22 26 24 22 23 24 24 24 28 28 30 26 23 22 36 36 35 34 23 24 26 29 32 32 33 35
27 27 26 25 24 26 30 36 36 21 19 28 30 29 26 26 23 25 26 26 25 27 29 27 22 25 27 28 29 25 26 24 24 31 33 31 28 23 24 24 28 33 34 35 38
27 27 28 27 27 28 36 50 30 21 26 22 30 30 28 26 26 21 23 21 25 26 28 26 27 28 31 30 31 26 26 25 28 39 41 29 26 26 27 28 31 35 38 37 34
26 25 27 28 30 34 52 44 32 27 28 30 28 29 30 28 28 33 32 28 27 30 30 31 30 27 27 30 30 30 30 32 32 36 40 34 31 27 30 31 33 39 37 36 34
28 27 30 31 34 39 51 45 29 30 33 35 35 32 29 30 32 34 30 25 25 27 30 33 34 31 25 24 24 28 32 33 31 33 40 46 30 28 30 32 32 35 35 35 36
32 29 30 36 38 40 42 32 30 30 36 37 33 32 30 32 34 33 33 29 26 26 27 31 37 30 27 27 26 29 33 34 33 38 38 42 35 28 31 32 33 36 35 36 35
38 33 30 36 42 37 34 32 34 34 31 32 38 36 32 29 28 29 29 32 34 32 30 28 32 32 31 30 31 32 32 34 34 36 37 43 35 33 30 35 37 38 42 39 34
51 42 34 36 40 41 35 32 32 34 36 35 36 32 32 30 29 29 27 28 26 28 33 33 32 30 28 29 31 31 29 31 36 40 38 38 35 35 34 37 40 43 41 40 44
62 69 43 38 34 32 29 31 31 34 34 32 35 33 29 32 28 28 30 28 27 28 32 37 36 35 36 37 36 37 37 38 42 39 42 39 41 39 40 42 43 42 43 50 54
54 50 43 42 38 40 34 31 30 28 32 29 30 27 29 31 28 30 34 33 30 28 34 37 39 40 40 39 44 45 41 42 43 45 47 48 43 43 42 40 37 42 49 52 51
57 55 50 49 42 40 38 35 33 35 36 38 36 37 40 33 38 41 37 38 42 39 42 45 45 45 49 48 52 52 31 40 42 33 38 47 34 39 33 45 46 51 50 43 38
Wind_Speed
16 8 17 13 12 12 11 12 13 14 17 19 20 18 16 16 12 9 6 4 3 2 2 1 1 2 4 6 9 13 15 16 15 15 16 17 18 18 21 22 23 22 25 24 20
12 11 18 15 13 12 12 12 14 17 18 20 20 19 16 16 12 9 7 4 2 1 1 2 2 2 4 7 9 11 14 10 10 11 14 16 18 18 21 19 16 19 20 21 20
19 18 16 14 13 13 13 13 15 18 20 20 19 20 17 15 12 9 7 4 3 2 2 5 4 3 4 7 10 12 12 11 12 13 16 18 15 15 16 13 13 15 14 15 16
20 19 17 15 14 14 13 13 16 19 21 20 19 19 17 16 11 13 10 8 5 4 4 6 7 7 7 9 10 13 10 12 11 12 15 15 14 11 10 9 13 14 18 18 20
19 18 16 15 15 15 14 14 16 20 22 21 19 18 18 17 15 8 11 10 9 8 8 8 8 10 9 9 13 14 11 11 11 12 12 8 6 11 8 10 12 17 21 24 25
17 17 16 15 15 15 14 15 17 20 22 22 21 19 19 18 16 13 11 11 12 11 11 11 11 12 12 11 12 15 14 11 10 5 5 8 12 14 6 7 16 21 20 16 15
16 15 15 14 14 15 15 16 19 21 22 23 22 21 20 17 15 16 16 15 14 13 14 13 12 13 11 12 10 13 17 11 5 9 11 15 13 4 7 9 17 16 9 10 10
15 14 13 13 14 14 15 17 20 21 21 23 23 23 22 21 19 15 15 16 17 17 17 15 12 11 11 11 14 15 14 5 3 9 12 14 12 9 9 13 10 4 8 11 13
14 14 13 13 14 14 16 18 20 20 20 21 22 22 23 23 22 20 19 19 19 19 19 15 12 11 12 11 12 8 9 12 12 12 10 16 14 11 15 12 1 7 10 12 14
15 15 14 13 14 14 16 18 20 20 21 21 20 17 19 13 21 22 20 19 20 18 14 11 12 11 11 10 6 7 14 14 16 14 16 11 14 13 13 6 8 7 8 9 10
16 16 13 13 13 14 16 19 20 21 23 23 9 18 7 12 18 13 13 14 13 15 12 12 14 14 9 7 9 10 13 18 15 15 12 16 17 11 4 13 10 10 6 5 7
16 15 14 13 13 14 17 18 18 16 18 21 22 21 13 23 17 12 14 16 13 11 11 15 17 12 12 10 11 11 15 15 12 12 16 17 11 4 12 12 12 8 5 2 6
16 15 15 15 15 14 14 15 14 14 18 18 21 23 23 23 17 15 16 15 14 15 13 16 10 9 5 8 10 13 15 14 12 13 16 9 2 8 11 11 10 7 4 1 4
18 17 18 17 17 15 14 11 10 11 8 10 16 21 22 24 26 21 23 20 19 17 14 12 9 10 9 9 10 12 11 9 11 14 8 11 3 11 13 12 12 8 4 2 6
21 20 20 19 17 16 14 13 11 9 3 4 12 14 19 24 16 11 20 26 24 20 15 6 5 5 6 6 6 8 10 11 14 16 10 5 4 5 16 16 14 10 5 4 8
24 22 21 21 19 17 15 14 12 6 6 4 8 13 15 19 22 19 10 17 22 19 18 17 14 13 10 8 7 8 11 13 15 7 2 4 3 4 10 13 15 11 8 6 8
25 24 22 21 19 18 17 16 10 6 6 6 8 12 13 13 15 17 12 12 13 10 13 11 13 17 15 13 10 8 6 5 3 1 3 2 6 5 10 10 9 11 9 8 10
26 25 23 22 21 20 19 19 8 10 12 5 8 9 10 11 12 16 13 11 14 11 4 4 4 8 9 12 6 5 6 3 3 2 4 6 6 3 8 10 12 15 11 10 13
26 25 25 24 24 24 24 25 13 11 8 10 6 9 11 10 6 11 14 15 12 14 8 4 4 5 6 7 9 5 5 4 3 3 2 4 5 7 7 11 17 14 11 10 16
27 26 26 27 27 27 28 29 19 10 9 10 11 6 6 11 12 8 9 4 11 16 11 7 4 8 9 10 12 13 7 4 5 2 4 5 8 10 14 18 18 16 12 13 20
27 27 28 29 29 31 36 36 32 13 11 10 11 9 8 7 11 11 5 4 4 3 14 12 10 5 8 9 12 13 15 10 6 4 4 2 5 2 13 19 21 20 18 20 27
27 29 27 31 34 38 39 34 31 27 15 11 10 11 9 8 6 9 10 8 2 4 6 10 7 8 10 13 14 15 14 13 8 5 8 4 12 20 16 19 21 16 20 25 34
27 29 26 32 38 40 36 33 31 28 19 25 15 13 11 9 6 8 11 13 12 11 6 7 8 4 3 10 17 18 20 21 21 21 17 8 9 10 9 13 16 17 31 34 32
28 27 31 34 40 36 35 31 32 30 27 22 21 22 20 17 12 9 10 9 12 14 16 17 18 18 15 14 16 13 14 15 18 18 23 33 33 24 19 20 24 35 37 31 22
32 34 37 32 40 35 32 28 32 32 28 26 30 27 24 20 18 19 19 18 16 14 15 19 22 23 23 20 21 23 23 24 27 30 33 42 39 34 31 33 36 38 25 16 20
37 37 33 32 15 33 31 35 32 22 28 29 26 21 20 23 20 18 15 12 17 15 18 22 22 23 25 24 23 27 28 30 36 40 47 47 50 41 35 34 28 15 15 19 23
37 36 33 29 29 26 30 32 27 25 26 20 16 19 21 18 15 14 14 16 15 13 14 20 22 23 25 23 21 23 33 26 27 27 27 35 34 27 19 15 12 14 17 21 27
Wind_Direction
227 264 281 254 238 223 216 217 205 194 189 184 181 182 179 177 176 169 164 164 165 124 99 57 78 242 239 244 232 238 242 255 267 269 270 277 278 268 271 285 296 304 296 298 304
251 240 255 251 237 222 217 216 205 194 190 191 188 186 186 186 184 183 188 187 208 236 212 355 332 324 268 266 267 257 263 274 271 274 273 271 280 285 284 287 304 289 298 306 306
266 241 244 234 233 229 223 214 208 199 192 195 194 192 193 193 195 196 197 207 245 245 278 325 307 293 301 283 275 276 278 282 276 281 280 283 287 288 296 302 284 298 298 299 301
259 242 227 230 228 231 224 217 211 203 198 198 198 200 201 200 205 214 216 222 238 265 290 314 310 307 306 302 294 288 299 291 286 280 284 288 295 296 302 289 292 296 297 302 303
246 238 228 226 227 230 225 219 212 210 201 204 200 203 208 208 211 216 216 220 241 262 283 301 306 310 304 299 300 297 304 298 298 300 295 301 302 310 316 284 289 294 298 307 308
238 232 228 225 229 232 229 223 213 214 204 206 208 207 214 215 215 218 219 235 252 268 284 292 298 302 298 301 298 298 298 302 290 249 311 296 302 303 271 283 286 294 311 322 332
231 229 230 229 232 234 230 223 215 214 210 209 212 216 218 214 224 229 239 249 260 274 284 292 295 295 294 302 298 303 302 302 291 237 285 294 309 315 290 278 289 315 340 351 2
230 227 232 237 239 239 234 223 215 216 212 215 216 222 225 222 229 234 242 251 264 276 283 287 286 283 289 297 300 303 305 319 238 287 286 299 307 310 294 297 319 23 49 45 47
231 232 232 238 238 236 231 221 214 212 216 220 221 228 236 233 233 238 245 255 264 272 277 276 274 281 288 296 302 301 293 302 311 312 294 314 313 309 293 305 270 90 72 61 54
229 230 230 231 231 230 222 213 212 214 217 221 223 233 234 231 237 238 243 252 260 267 266 262 270 277 290 289 279 282 298 305 316 314 305 311 315 300 287 265 155 111 93 76 59
225 226 226 226 226 225 216 210 210 216 220 223 215 234 247 224 236 229 231 234 240 250 257 260 273 282 279 260 268 284 290 305 326 315 323 327 324 320 204 150 148 134 110 78 35
227 227 226 223 219 216 213 209 217 232 239 236 233 229 231 239 243 227 228 236 238 243 255 276 283 271 250 254 266 277 292 309 318 314 320 325 326 150 153 156 154 150 136 79 13
230 227 223 223 220 215 215 212 222 239 255 245 245 241 236 246 244 242 233 235 243 248 272 275 269 278 260 248 268 279 288 304 304 315 321 326 284 175 169 168 169 168 188 239 331
226 225 221 222 218 217 215 215 223 243 266 265 239 239 232 233 243 235 239 241 244 255 273 274 262 256 257 261 261 284 291 293 301 313 311 308 265 208 198 191 192 199 209 276 323
224 222 219 220 219 214 215 213 216 227 342 245 217 213 218 214 227 227 240 239 245 250 253 241 246 252 247 248 271 285 292 294 300 300 295 260 233 224 213 210 207 210 225 263 300
220 218 216 217 214 209 207 205 196 190 254 221 209 215 210 214 224 234 252 233 235 240 244 246 251 264 265 274 265 289 291 296 293 284 253 179 227 244 218 221 217 218 225 261 288
217 213 213 215 213 208 201 194 176 216 223 217 214 214 212 212 222 225 236 231 209 216 240 252 252 257 259 260 260 266 280 302 328 337 216 170 258 244 207 219 218 219 226 261 293
215 211 209 212 211 209 202 191 201 230 217 202 207 209 216 212 225 218 223 220 212 214 236 241 255 235 245 238 243 223 260 242 265 261 285 272 245 220 225 242 209 198 227 255 294
211 209 207 208 208 210 203 195 213 224 211 214 201 209 212 206 206 214 236 244 242 235 224 235 241 224 221 228 222 235 228 225 261 290 297 256 270 262 222 192 185 203 227 279 319
208 206 205 207 205 205 206 213 216 206 205 208 212 219 212 212 210 203 221 250 239 237 231 237 248 242 238 236 233 242 247 223 221 220 274 286 273 237 192 191 200 212 242 290 324
205 205 201 204 205 206 213 219 221 212 212 210 212 219 221 218 215 211 219 231 230 234 222 229 244 256 246 250 256 246 233 230 225 223 193 278 265 275 219 211 222 236 264 299 318
206 206 205 202 204 213 217 220 228 226 217 217 215 217 220 208 234 226 233 229 219 236 235 235 255 252 268 261 255 247 241 236 229 223 219 236 270 274 244 238 243 256 289 305 315
208 212 211 211 212 218 223 224 229 231 228 232 228 229 231 236 242 244 249 245 247 257 259 255 236 239 258 253 250 248 252 254 255 255 247 221 257 286 250 241 253 279 304 305 302
212 213 216 217 220 224 226 229 231 235 234 234 240 243 249 250 242 245 245 250 253 255 258 259 244 247 248 275 279 264 267 258 249 248 254 249 264 255 256 270 271 290 296 295 284
215 215 226 223 222 225 227 231 235 235 237 237 242 244 246 253 252 249 255 259 257 254 253 246 249 257 267 273 273 274 269 267 258 260 256 275 270 271 268 270 278 287 282 278 291
211 213 215 224 216 227 226 228 234 233 238 241 243 246 248 246 253 263 262 258 255 255 251 249 251 263 271 277 278 279 278 272 269 268 268 268 271 273 277 276 268 261 281 291 294
217 220 222 229 225 223 228 233 236 237 241 241 245 244 250 252 252 241 244 255 251 248 246 251 255 264 273 281 282 281 286 283 279 276 279 267 276 275 261 249 258 278 283 292 302